Regional Weather Roundup
Issued by NWS Midland/Odessa, TX

Skip options and go directly to product.
Home | Oldest Version | Previous Version | Current Version | All | Text Only | Save Text | Print | Product List | Glossary Off

Skip product version selection by date and time.   

515
ASUS44 KMAF 070110
RWRMAF
MIDLAND AREA WEATHER ROUNDUP
NATIONAL WEATHER SERVICE MIDLAND TX
700 PM CST SAT FEB 06 2016

...IN SOUTHWEST TEXAS AND SOUTHEAST NEW MEXICO...

CITY           SKY/WX    TMP DP  RH WIND       PRES   REMARKS
ALPINE         CLEAR     46   6  19 SW8       30.38S
ANDREWS        FAIR      48  10  21 SW8       30.27S
ARTESIA        CLEAR     50  10  20 S13       30.22F
BIG SPRING     CLEAR     44  17  33 SE8       30.31R WCI  39
CARLSBAD       CLEAR     49   7  18 W3        30.22F
DRYDEN           N/A     56  10  16 S7        30.29S
FORT STOCKTON  CLEAR     52  13  21 CALM      30.29F
GUAD PASS      CLEAR     45   2  17 SW23      30.30S WCI  36
HOBBS          CLEAR     46   1  15 S7        30.26S
MARFA          CLEAR     44   1  16 SW5       30.35S
MIDLAND AIRPK  CLEAR     52  14  21 S8        30.29S
MIDLAND INTL   CLEAR     52  12  20 S8        30.28S
ODESSA         CLEAR     50  10  20 S8        30.28F
PECOS          CLEAR     54  11  18 CALM      30.27F
PRESIDIO       FAIR      56  10  15 CALM      30.32S
SEMINOLE       CLEAR     45   9  23 S7        30.26S
SNYDER           N/A     50  15  24 S6        30.28S
WINK           CLEAR     50  11  20 SE10      30.26F
$$
...OTHER STATIONS IN TEXAS...

CITY           SKY/WX    TMP DP  RH WIND       PRES   REMARKS
ABILENE        CLEAR     46  19  34 SE7       30.30F
AMARILLO       CLEAR     43  12  28 S9        30.21R WCI  38
AUSTIN         CLEAR     44  27  51 N6        30.35R
BROWNSVILLE    CLEAR     61  24  24 N5        30.35R
CORPUS CHRISTI PTCLDY    59  20  22 N12       30.35R
DALLAS FTW     PTCLDY    47  32  56 SE3       30.34S
DEL RIO        CLEAR     59  16  18 E3        30.32R
EL PASO        MOCLDY    50   3  14 E5        30.31S
HOUSTON INT    CLEAR     51  34  52 N10       30.33R
LUBBOCK        PTCLDY    47   9  21 S10       30.23R
SAN ANGELO     CLEAR     48  17  29 S5        30.31S
SAN ANTONIO    PTCLDY    53  18  25 N5        30.36R
WACO           CLEAR     42  32  67 NE6       30.37S WCI  38
WICHITA FALLS  NOT AVBL
$$
...OTHER LOCATIONS IN NEW MEXICO...

CITY           SKY/WX    TMP DP  RH WIND       PRES   REMARKS
ALAMAGORDO     CLEAR     48   1  14 NW7       30.31R
ALBUQUERQUE    CLEAR     47  13  25 N9        30.34R
CANNON AFB     CLEAR     45  10  24 S7        30.19R
CLOVIS         CLEAR     43  10  26 S9        30.21R WCI  37
HOLLOMAN AFB   CLEAR     50   5  16 NW5       30.29F
ROSWELL        CLEAR     51  11  20 S9        30.20F
RUIDOSO          N/A     41   1  19 NW8       30.32R WCI  36
SANTA FE       CLEAR     35  12  38 W6        30.31R WCI  30
TRUTH OR CONSE PTCLDY    49   4  16 S5        30.31S
TUCUMCARI      CLEAR     44   9  23 CALM      30.14F
$$

USA.gov is the U.S. government's official web portal to all federal, state and local government web resources and services.